Location: Fountain Hills
(33.6120°N, 111.7170°W)
Time: 06:15:31
(UTC-07:00)

Daily predictions for brighter satellites

Satellite Brightness Start Highest point End
(mag) Time Altitude Azimuth Time Altitude Azimuth Time Altitude Azimuth
EXPRESS MD2 2.7 18:39:52 10° NW 18:42:23 77° NE 18:46:41 10° SE
Cosmos 1825 Rocket 3.8 18:42:30 10° N 18:46:47 49° E 18:51:04 10° SSE
Lacrosse 5 2.0 18:41:47 10° NW 18:46:52 81° SW 18:51:55 10° SE
Cosmos 1814 Rocket 3.9 18:49:50 10° S 18:54:58 72° ESE 19:00:06 10° NNE
Cosmos 1898 Rocket 3.5 18:51:00 10° N 18:56:07 58° ENE 19:01:11 10° SSE
Cosmos 371 Rocket 4.0 18:51:30 10° SSW 18:56:17 61° WNW 19:01:08 10° N
SJ-6B 4.0 18:54:03 10° SE 18:57:20 24° ENE 19:00:35 10° NNE
Cosmos 990 Rocket 4.3 19:00:27 10° N 19:05:22 43° ENE 19:10:14 10° SE
GPS 2-04 Rocket1 4.0 19:02:38 10° W 19:06:36 38° SSW 19:10:35 10° SE
SL-08 ROCKET BODY 4.4 19:01:51 10° S 19:07:35 61° E 19:13:25 10° NNE
USA 234 4.0 19:04:44 10° SSE 19:11:05 53° SW 19:17:27 10° NW
USA 81 4.2 19:06:18 10° N 19:11:28 53° E 19:16:36 10° SSE
Cosmos 2181 Rocket 3.9 19:06:29 10° N 19:12:39 72° E 19:18:44 10° SSE
Envisat 4.5 19:11:57 14° E 19:13:44 17° ENE 19:16:56 10° NNE
Geosat 4.0 19:09:42 10° SSE 19:14:42 73° ENE 19:19:43 10° NNW
Cosmos 389 Rocket 3.8 19:11:51 10° SSW 19:15:13 43° W 19:18:34 10° N
Cosmos 1943 Rocket 2.1 19:09:50 10° NNW 19:15:27 86° ENE 19:21:04 10° SSE
Cosmos 2150 Rocket 4.1 19:12:22 10° N 19:17:40 59° ENE 19:23:00 10° SSE
Cosmos 1758 Rocket 3.6 19:14:25 10° N 19:18:55 89° E 19:23:24 10° S
Cosmos 1726 Rocket 4.0 19:16:33 10° SSW 19:20:52 63° W 19:25:11 10° N
H-2A R/B 2.7 19:18:48 10° SSE 19:22:24 56° ENE 19:26:05 10° N
Cosmos 2074 Rocket 4.0 19:19:12 10° S 19:25:16 60° E 19:31:21 10° NNE
ISS -1.9 19:23:56 10° S 19:25:18 16° SSE 19:25:18 16° SSE
OE (NEXTSAT) 4.3 19:22:51 10° NW 19:26:23 83° NE 19:28:13 26° ESE
Cosmos 841 Rocket 3.6 19:29:07 10° SSW 19:34:15 75° WNW 19:39:24 10° NNE
Cosmos 1766 3.2 19:33:10 10° S 19:37:02 59° E 19:40:54 10° NNE
Meteor 2-5 Rocket 3.7 19:31:40 10° N 19:37:33 88° E 19:43:15 10° S
Meteor 1-22 Rocket 4.1 19:32:08 10° S 19:37:54 70° E 19:43:28 10° NNE
Cosmos 1937 Rocket 3.7 19:35:10 10° NNW 19:40:27 73° WSW 19:45:40 10° S
OAO 3 Copernicus 4.3 19:36:45 10° W 19:41:50 82° N 19:44:21 30° ENE
HJ-1C 3.2 19:39:02 14° SSE 19:41:50 88° E 19:45:11 10° N
Cosmos 2298 Rocket 4.3 19:36:52 10° NNW 19:42:11 69° WSW 19:47:27 10° S
Resurs 01 Rocket 2.1 19:41:53 33° ESE 19:43:02 39° ENE 19:47:08 10° N
MOS 1-B Rocket 4.5 19:39:43 21° SE 19:43:17 39° ENE 19:48:37 10° N
Tiangong 2 4.0 19:43:20 10° WSW 19:44:21 11° SW 19:45:22 10° SSW
Cosmos 304 Rocket 4.2 19:39:48 10° SSW 19:44:31 62° WNW 19:49:17 10° N
Cosmos 1707 3.7 19:42:01 10° NNW 19:45:48 48° W 19:49:35 10° SSW
COSMOS 2406 3.1 19:41:27 10° SSW 19:47:08 82° ESE 19:52:53 10° NNE
USA 229 DEB 4.2 19:42:25 10° NW 19:49:35 67° WSW 19:56:51 10° SSE
USA 229 4.1 19:42:31 10° NW 19:49:41 68° WSW 19:56:57 10° SSE
Cosmos 2228 4.5 19:49:13 10° SSW 19:53:19 40° W 19:57:25 10° N
Cosmos 1656 Rocket 3.5 19:48:08 10° NNW 19:53:47 76° ENE 19:57:02 26° SSE
GP-B 3.3 19:49:37 10° NNE 19:53:47 44° E 19:53:47 44° E
NOSS 3-1 (A) 4.3 19:46:40 10° NNW 19:54:16 53° NE 19:58:20 30° ESE
Nadezhda 3 Rocket 4.3 19:51:37 10° N 19:57:32 41° E 19:58:49 37° ESE
Cosmos 540 Rocket 3.3 19:53:20 10° SSW 19:58:26 88° ESE 20:03:34 10° NNE
Cosmos 1812 Rocket 3.5 19:54:25 10° S 19:58:47 63° E 20:03:12 10° NNE
Cosmos 2184 Rocket 4.3 19:54:33 10° SSW 20:00:48 71° W 20:07:09 10° N
NOSS 3-1 (C) 4.0 19:56:10 10° NNW 20:04:02 79° ENE 20:09:05 28° SE
BREEZE-M DEB 2.6 20:00:41 10° NW 20:06:40 80° SW 20:06:45 79° SSW
Cosmos 1610 Rocket 4.5 20:02:08 10° S 20:08:28 89° W 20:14:54 10° N
Cosmos 1544 3.7 20:05:37 10° SSW 20:09:09 55° W 20:12:41 10° N
Cosmos 1900 4.3 20:06:06 10° SSW 20:11:05 64° ESE 20:11:32 61° E
Cosmos 1805 3.7 20:14:16 54° N 20:14:16 54° N 20:17:22 10° N
In-Cosmos 22 4.2 20:11:36 10° N 20:17:19 82° W 20:20:43 26° S
CZ-2D R/B 3.9 20:17:58 47° SW 20:18:30 52° W 20:22:14 10° NNW
Meteor 2-8 Rocket 4.4 20:13:02 10° N 20:19:11 88° W 20:22:49 26° S
Spot 2 Rocket 3.3 20:19:11 62° SSE 20:20:04 87° E 20:25:08 10° NNW
BREEZE M DEB (TANK) 4.5 20:33:13 10° NW 20:35:50 29° NW 20:35:50 29° NW
GEOS 3 Rocket 4.0 20:36:05 14° NNE 20:40:43 65° NW 20:46:01 10° SW
Cosmos 962 Rocket 4.5 20:43:15 43° SSW 20:45:31 81° W 20:51:55 10° N
Cosmos 1125 Rocket 3.9 20:43:34 10° NNW 20:48:12 61° WNW 20:48:12 61° WNW
Envisat 3.8 20:52:10 46° WSW 20:52:20 47° W 20:57:13 10° NNW
ATLAS CENTAUR R/B 3.6 20:49:02 10° NW 20:57:19 41° WSW 20:57:21 41° WSW
Milstar 3 Cent rocket 3.9 21:01:23 10° WSW 21:02:54 20° WSW 21:02:54 20° WSW
Resurs 01 Rocket 4.3 21:19:28 15° W 21:19:36 15° W 21:22:06 10° WNW
ATLAS 2AS CENTAUR R/B 4.0 21:28:50 10° NNW 21:33:46 36° N 21:33:46 36° N
FALCON 9 R/B 4.2 21:41:21 10° W 21:42:57 26° W 21:42:57 26° W
